| time (UTC) | temp F | wind direction | speed MPH | gust MPH | rain 1hr in | rain 24hr in | rain mn in | humidity % | barometer mb |
| 20260510104830 | 42 | 289 | 3.0 | 3.0 | 0.00 | 0.00 | 0.00 | 67 | 1011.5 |
| 20260510104327 | 41 | 293 | 1.0 | 2.0 | 0.00 | 0.00 | 0.00 | 68 | 1011.3 |
| 20260510103823 | 41 | 289 | 0.0 | 1.0 | 0.00 | 0.00 | 0.00 | 69 | 1011.3 |
| 20260510103320 | 41 | 245 | 0.0 | 0.0 | 0.00 | 0.00 | 0.00 | 70 | 1011.2 |
| 20260510102815 | 41 | 244 | 0.0 | 0.0 | 0.00 | 0.00 | 0.00 | 70 | 1010.9 |
| 20260510102311 | 41 | 243 | 0.0 | 0.0 | 0.00 | 0.00 | 0.00 | 70 | 1010.8 |
| 20260510101809 | 41 | 243 | 1.0 | 1.0 | 0.00 | 0.00 | 0.00 | 70 | 1010.6 |
| 20260510101307 | 41 | 243 | 0.0 | 0.0 | 0.00 | 0.00 | 0.00 | 70 | 1010.6 |
| 20260510100802 | 41 | 248 | 0.0 | 1.0 | 0.00 | 0.00 | 0.00 | 69 | 1010.6 |
| 20260510100301 | 41 | 249 | 0.0 | 0.0 | 0.00 | 0.00 | 0.00 | 69 | 1010.3 |
| 20260510095756 | 41 | 249 | 1.0 | 1.0 | 0.00 | 0.00 | 0.00 | 68 | 1010.4 |
| 20260510095251 | 42 | 249 | 1.0 | 1.0 | 0.00 | 0.00 | 0.00 | 68 | 1010.1 |
| 20260510094750 | 42 | 244 | 1.0 | 1.0 | 0.00 | 0.00 | 0.00 | 68 | 1010.1 |
| 20260510094246 | 42 | 262 | 1.0 | 1.0 | 0.00 | 0.00 | 0.00 | 67 | 1010.1 |
| 20260510093742 | 42 | 265 | 2.0 | 1.0 | 0.00 | 0.00 | 0.00 | 67 | 1010.0 |
| 20260510093239 | 42 | 261 | 2.0 | 2.0 | 0.00 | 0.00 | 0.00 | 66 | 1009.9 |
| 20260510092735 | 42 | 246 | 3.0 | 3.0 | 0.00 | 0.00 | 0.00 | 67 | 1010.1 |
| 20260510092231 | 43 | 259 | 2.0 | 2.0 | 0.00 | 0.00 | 0.00 | 66 | 1009.9 |
| 20260510091727 | 43 | 244 | 1.0 | 1.0 | 0.00 | 0.00 | 0.00 | 66 | 1009.5 |
| 20260510091224 | 43 | 257 | 1.0 | 1.0 | 0.00 | 0.00 | 0.00 | 65 | 1009.6 |
| 20260510090720 | 43 | 257 | 2.0 | 2.0 | 0.00 | 0.00 | 0.00 | 65 | 1009.7 |
| 20260510090218 | 44 | 262 | 2.0 | 3.0 | 0.00 | 0.00 | 0.00 | 65 | 1009.4 |
| 20260510085712 | 44 | 280 | 3.0 | 3.0 | 0.00 | 0.00 | 0.00 | 65 | 1009.4 |
| 20260510085208 | 44 | 299 | 1.0 | 1.0 | 0.00 | 0.00 | 0.00 | 64 | 1009.4 |
| 20260510084704 | 44 | 324 | 0.0 | 0.0 | 0.00 | 0.00 | 0.00 | 64 | 1009.1 |
| 20260510084201 | 44 | 318 | 2.0 | 1.0 | 0.00 | 0.00 | 0.00 | 63 | 1009.1 |
| 20260510083658 | 45 | 287 | 1.0 | 1.0 | 0.00 | 0.00 | 0.00 | 62 | 1009.1 |
| 20260510083154 | 45 | 347 | 3.0 | 4.0 | 0.00 | 0.00 | 0.00 | 61 | 1009.1 |
| 20260510082650 | 45 | 326 | 2.0 | 2.0 | 0.00 | 0.00 | 0.00 | 61 | 1008.9 |
| 20260510082146 | 46 | 298 | 1.0 | 2.0 | 0.00 | 0.00 | 0.00 | 60 | 1009.1 |
| 20260510081641 | 46 | 285 | 2.0 | 2.0 | 0.00 | 0.00 | 0.00 | 59 | 1008.9 |
| 20260510081137 | 46 | 248 | 4.0 | 6.0 | 0.00 | 0.00 | 0.00 | 59 | 1008.8 |
| 20260510080637 | 46 | 298 | 2.0 | 2.0 | 0.00 | 0.00 | 0.00 | 58 | 1008.7 |
| 20260510080134 | 47 | 343 | 2.0 | 2.0 | 0.00 | 0.00 | 0.00 | 58 | 1008.7 |
| 20260510075631 | 47 | 355 | 3.0 | 3.0 | 0.00 | 0.00 | 0.00 | 57 | 1008.6 |
| 20260510075128 | 48 | 280 | 2.0 | 3.0 | 0.00 | 0.00 | 0.00 | 56 | 1008.7 |
| 20260510074625 | 48 | 315 | 1.0 | 1.0 | 0.00 | 0.00 | 0.00 | 56 | 1008.7 |
| 20260510074120 | 48 | 316 | 2.0 | 2.0 | 0.00 | 0.00 | 0.00 | 55 | 1008.7 |
| 20260510073617 | 48 | 308 | 6.0 | 8.0 | 0.00 | 0.00 | 0.00 | 55 | 1008.6 |
| 20260510073114 | 49 | 313 | 6.0 | 7.0 | 0.00 | 0.00 | 0.00 | 55 | 1008.6 |
| 20260510072610 | 49 | 285 | 4.0 | 6.0 | 0.00 | 0.00 | 0.00 | 59 | 1008.4 |
| 20260510072107 | 49 | 272 | 4.0 | 6.0 | 0.00 | 0.00 | 0.00 | 59 | 1008.3 |
| 20260510071603 | 49 | 285 | 2.0 | 2.0 | 0.00 | 0.00 | 0.00 | 59 | 1008.1 |
| 20260510071101 | 49 | 282 | 2.0 | 2.0 | 0.00 | 0.00 | 0.00 | 59 | 1008.1 |
| 20260510070557 | 49 | 284 | 2.0 | 2.0 | 0.00 | 0.00 | 0.00 | 59 | 1008.1 |
| 20260510070055 | 49 | 295 | 2.0 | 3.0 | 0.00 | 0.00 | 0.00 | 58 | 1008.2 |
| 20260510065551 | 50 | 283 | 4.0 | 6.0 | 0.00 | 0.00 | 0.00 | 58 | 1008.0 |
| 20260510065047 | 50 | 275 | 4.0 | 4.0 | 0.00 | 0.00 | 0.00 | 59 | 1008.1 |
| 20260510064543 | 50 | 275 | 4.0 | 6.0 | 0.00 | 0.00 | 0.00 | 60 | 1008.2 |
| 20260510064040 | 50 | 259 | 4.0 | 6.0 | 0.00 | 0.00 | 0.00 | 60 | 1008.1 |
| 20260510063537 | 50 | 294 | 2.0 | 3.0 | 0.00 | 0.00 | 0.00 | 59 | 1008.0 |
| 20260510063034 | 50 | 259 | 1.0 | 1.0 | 0.00 | 0.00 | 0.00 | 60 | 1007.8 |
| 20260510062530 | 49 | 265 | 2.0 | 3.0 | 0.00 | 0.00 | 0.00 | 60 | 1007.8 |
| 20260510062025 | 50 | 286 | 4.0 | 3.0 | 0.00 | 0.00 | 0.00 | 60 | 1007.8 |
| 20260510061522 | 50 | 266 | 1.0 | 1.0 | 0.00 | 0.00 | 0.00 | 60 | 1007.8 |
| 20260510061019 | 50 | 297 | 2.0 | 3.0 | 0.00 | 0.00 | 0.00 | 60 | 1007.4 |
| 20260510060515 | 50 | 339 | 3.0 | 3.0 | 0.00 | 0.00 | 0.00 | 60 | 1007.4 |
| 20260510060011 | 49 | 264 | 3.0 | 3.0 | 0.00 | 0.00 | 0.00 | 61 | 1007.5 |
| 20260510055507 | 50 | 332 | 1.0 | 1.0 | 0.00 | 0.00 | 0.00 | 63 | 1007.5 |
| 20260510055006 | 50 | 256 | 5.0 | 6.0 | 0.00 | 0.00 | 0.00 | 62 | 1007.6 |
| 20260510054501 | 50 | 266 | 2.0 | 2.0 | 0.00 | 0.00 | 0.00 | 62 | 1007.4 |
| 20260510053956 | 50 | 298 | 0.0 | 1.0 | 0.00 | 0.00 | 0.00 | 62 | 1007.6 |
| 20260510053451 | 50 | 280 | 4.0 | 6.0 | 0.00 | 0.00 | 0.00 | 62 | 1007.3 |
| 20260510052948 | 50 | 293 | 2.0 | 2.0 | 0.00 | 0.00 | 0.00 | 63 | 1007.4 |
| 20260510052444 | 50 | 286 | 1.0 | 1.0 | 0.00 | 0.00 | 0.00 | 64 | 1007.3 |
| 20260510051940 | 50 | 289 | 3.0 | 4.0 | 0.00 | 0.00 | 0.00 | 64 | 1007.2 |
| 20260510051437 | 50 | 261 | 3.0 | 3.0 | 0.00 | 0.00 | 0.00 | 66 | 1007.2 |
| 20260510050933 | 50 | 263 | 2.0 | 3.0 | 0.00 | 0.00 | 0.00 | 67 | 1007.1 |
| 20260510050430 | 50 | 314 | 1.0 | 1.0 | 0.00 | 0.00 | 0.00 | 68 | 1007.1 |
| 20260510045927 | 50 | 292 | 2.0 | 2.0 | 0.00 | 0.00 | 0.00 | 69 | 1007.1 |
| 20260510045424 | 50 | 267 | 2.0 | 2.0 | 0.00 | 0.00 | 0.00 | 70 | 1006.9 |
| 20260510044921 | 50 | 321 | 1.0 | 1.0 | 0.00 | 0.00 | 0.00 | 71 | 1006.6 |
| 20260510044418 | 50 | 289 | 2.0 | 2.0 | 0.00 | 0.00 | 0.00 | 72 | 1006.5 |
| 20260510043915 | 50 | 261 | 1.0 | 1.0 | 0.00 | 0.00 | 0.00 | 72 | 1006.7 |
| 20260510043411 | 50 | 273 | 1.0 | 1.0 | 0.00 | 0.00 | 0.00 | 72 | 1006.5 |
| 20260510042909 | 50 | 297 | 0.0 | 0.0 | 0.00 | 0.00 | 0.00 | 72 | 1006.2 |
| 20260510042404 | 50 | 281 | 1.0 | 2.0 | 0.00 | 0.00 | 0.00 | 72 | 1006.5 |
| 20260510041900 | 50 | 296 | 1.0 | 1.0 | 0.00 | 0.00 | 0.00 | 72 | 1006.2 |
| 20260510041357 | 50 | 351 | 2.0 | 2.0 | 0.00 | 0.00 | 0.00 | 72 | 1005.8 |
| 20260510040855 | 50 | 346 | 2.0 | 2.0 | 0.00 | 0.00 | 0.00 | 73 | 1005.8 |
| 20260510040352 | 50 | 315 | 2.0 | 2.0 | 0.00 | 0.00 | 0.00 | 73 | 1005.9 |
| 20260510035847 | 50 | 339 | 0.0 | 0.0 | 0.00 | 0.08 | 0.08 | 73 | 1005.9 |
| 20260510035343 | 51 | 334 | 1.0 | 1.0 | 0.00 | 0.08 | 0.08 | 72 | 1005.6 |
| 20260510034839 | 51 | 353 | 0.0 | 0.0 | 0.00 | 0.08 | 0.08 | 72 | 1005.8 |
| 20260510034337 | 51 | 317 | 0.0 | 0.0 | 0.00 | 0.08 | 0.08 | 73 | 1005.7 |
| 20260510033833 | 51 | 324 | 1.0 | 1.0 | 0.00 | 0.08 | 0.08 | 75 | 1005.7 |
| 20260510033330 | 51 | 327 | 3.0 | 3.0 | 0.00 | 0.08 | 0.08 | 77 | 1005.7 |
| 20260510032827 | 51 | 333 | 1.0 | 2.0 | 0.00 | 0.08 | 0.08 | 80 | 1006.0 |
| 20260510032324 | 51 | 316 | 0.0 | 1.0 | 0.00 | 0.08 | 0.08 | 82 | 1006.1 |
| 20260510031819 | 51 | 269 | 4.0 | 4.0 | 0.00 | 0.08 | 0.08 | 84 | 1005.8 |
| 20260510031315 | 50 | 345 | 2.0 | 2.0 | 0.00 | 0.08 | 0.08 | 86 | 1005.7 |
| 20260510030809 | 50 | 285 | 2.0 | 2.0 | 0.00 | 0.08 | 0.08 | 87 | 1005.8 |
| 20260510030306 | 50 | 308 | 1.0 | 1.0 | 0.00 | 0.08 | 0.08 | 87 | 1006.0 |
| 20260510025803 | 50 | 300 | 1.0 | 2.0 | 0.00 | 0.08 | 0.08 | 86 | 1005.8 |
| 20260510025301 | 50 | 290 | 0.0 | 1.0 | 0.00 | 0.08 | 0.08 | 86 | 1005.7 |
| 20260510024757 | 50 | 289 | 1.0 | 1.0 | 0.00 | 0.08 | 0.08 | 86 | 1005.6 |
| 20260510024254 | 50 | 308 | 1.0 | 1.0 | 0.00 | 0.08 | 0.08 | 86 | 1005.8 |
| 20260510023750 | 50 | 327 | 1.0 | 1.0 | 0.00 | 0.08 | 0.08 | 85 | 1005.5 |
| 20260510023247 | 50 | 260 | 2.0 | 2.0 | 0.00 | 0.08 | 0.08 | 85 | 1005.3 |
| 20260510022743 | 50 | 273 | 3.0 | 3.0 | 0.00 | 0.08 | 0.08 | 84 | 1005.2 |
| 20260510022243 | 50 | 253 | 1.0 | 1.0 | 0.00 | 0.08 | 0.08 | 85 | 1005.2 |
| 20260510021743 | 50 | 277 | 1.0 | 1.0 | 0.00 | 0.08 | 0.08 | 85 | 1004.8 |
| 20260510021241 | 49 | 258 | 4.0 | 4.0 | 0.00 | 0.08 | 0.08 | 85 | 1004.9 |
| 20260510020736 | 49 | 258 | 2.0 | 2.0 | 0.00 | 0.08 | 0.08 | 85 | 1004.8 |
| 20260510020231 | 49 | 254 | 2.0 | 2.0 | 0.00 | 0.08 | 0.08 | 85 | 1004.9 |
| 20260510015727 | 49 | 245 | 4.0 | 4.0 | 0.00 | 0.08 | 0.08 | 85 | 1004.7 |
| 20260510015224 | 49 | 243 | 3.0 | 3.0 | 0.00 | 0.08 | 0.08 | 85 | 1004.6 |
| 20260510014719 | 49 | 259 | 3.0 | 4.0 | 0.00 | 0.08 | 0.08 | 85 | 1004.7 |
| 20260510014217 | 49 | 231 | 2.0 | 3.0 | 0.00 | 0.08 | 0.08 | 84 | 1004.7 |
| 20260510013712 | 49 | 233 | 4.0 | 4.0 | 0.00 | 0.08 | 0.08 | 84 | 1004.2 |
| 20260510013208 | 50 | 233 | 3.0 | 3.0 | 0.00 | 0.08 | 0.08 | 83 | 1004.3 |
| 20260510012708 | 50 | 235 | 5.0 | 6.0 | 0.00 | 0.08 | 0.08 | 83 | 1004.3 |
| 20260510012203 | 50 | 258 | 4.0 | 4.0 | 0.00 | 0.08 | 0.08 | 84 | 1004.3 |
| 20260510011658 | 50 | 226 | 2.0 | 2.0 | 0.00 | 0.08 | 0.08 | 83 | 1004.2 |
| 20260510011154 | 49 | 238 | 3.0 | 3.0 | 0.00 | 0.08 | 0.08 | 83 | 1004.1 |
| 20260510010650 | 49 | 242 | 6.0 | 7.0 | 0.00 | 0.08 | 0.08 | 83 | 1004.2 |
| 20260510010148 | 49 | 259 | 4.0 | 4.0 | 0.00 | 0.08 | 0.08 | 83 | 1004.3 |
| 20260510005643 | 49 | 222 | 4.0 | 6.0 | 0.00 | 0.08 | 0.08 | 83 | 1004.3 |
| 20260510005141 | 49 | 230 | 4.0 | 4.0 | 0.00 | 0.08 | 0.08 | 84 | 1004.3 |
| 20260510004639 | 49 | 251 | 4.0 | 6.0 | 0.00 | 0.08 | 0.08 | 83 | 1004.0 |
| 20260510004137 | 50 | 207 | 10.0 | 13.0 | 0.00 | 0.08 | 0.08 | 82 | 1003.8 |
| 20260510003633 | 50 | 224 | 6.0 | 9.0 | 0.00 | 0.08 | 0.08 | 83 | 1003.8 |
| 20260510003129 | 50 | 198 | 6.0 | 6.0 | 0.00 | 0.08 | 0.08 | 82 | 1003.6 |
| 20260510002629 | 50 | 217 | 4.0 | 4.0 | 0.00 | 0.08 | 0.08 | 82 | 1003.6 |
| 20260510002126 | 50 | 254 | 7.0 | 8.0 | 0.00 | 0.08 | 0.08 | 82 | 1003.6 |
| 20260510001623 | 50 | 241 | 5.0 | 6.0 | 0.00 | 0.08 | 0.08 | 82 | 1003.8 |
| 20260510001122 | 50 | 242 | 4.0 | 7.0 | 0.00 | 0.08 | 0.08 | 82 | 1003.4 |
| 20260510000622 | 50 | 253 | 3.0 | 3.0 | 0.00 | 0.08 | 0.08 | 82 | 1003.2 |
| 20260510000120 | 51 | 237 | 5.0 | 6.0 | 0.00 | 0.08 | 0.08 | 82 | 1003.1 |
| 20260509235616 | 51 | 251 | 6.0 | 9.0 | 0.00 | 0.08 | 0.08 | 82 | 1003.0 |
| 20260509235113 | 51 | 268 | 6.0 | 8.0 | 0.00 | 0.08 | 0.08 | 83 | 1002.7 |
| 20260509234608 | 51 | 224 | 6.0 | 8.0 | 0.00 | 0.08 | 0.08 | 84 | 1003.0 |
| 20260509234107 | 52 | 241 | 7.0 | 8.0 | 0.00 | 0.08 | 0.08 | 84 | 1002.6 |
| 20260509233604 | 53 | 261 | 4.0 | 4.0 | 0.00 | 0.08 | 0.08 | 83 | 1002.4 |
| 20260509233101 | 53 | 220 | 1.0 | 1.0 | 0.00 | 0.08 | 0.08 | 84 | 1002.3 |
| 20260509232557 | 53 | 233 | 4.0 | 6.0 | 0.00 | 0.08 | 0.08 | 83 | 1002.1 |
| 20260509232054 | 54 | 206 | 6.0 | 9.0 | 0.00 | 0.08 | 0.08 | 82 | 1002.1 |
| 20260509231551 | 53 | 296 | 6.0 | 8.0 | 0.00 | 0.08 | 0.08 | 84 | 1002.2 |
| 20260509231049 | 52 | 236 | 6.0 | 8.0 | 0.00 | 0.08 | 0.08 | 86 | 1002.4 |
| 20260509230545 | 51 | 193 | 3.0 | 3.0 | 0.00 | 0.08 | 0.08 | 89 | 1002.3 |
| 20260509230043 | 50 | 183 | 3.0 | 3.0 | 0.00 | 0.08 | 0.08 | 91 | 1002.3 |
| 20260509225537 | 50 | 201 | 1.0 | 1.0 | 0.05 | 0.08 | 0.08 | 90 | 1002.9 |
| 20260509225033 | 49 | 222 | 2.0 | 2.0 | 0.12 | 0.08 | 0.08 | 90 | 1002.9 |
| 20260509224529 | 49 | 185 | 4.0 | 3.0 | 0.12 | 0.07 | 0.07 | 90 | 1002.3 |
| 20260509224026 | 49 | 65 | 3.0 | 3.0 | 0.19 | 0.07 | 0.07 | 89 | 1002.9 |
| 20260509223523 | 49 | 186 | 2.0 | 2.0 | 0.26 | 0.05 | 0.05 | 88 | 1003.4 |
| 20260509223021 | 50 | 152 | 1.0 | 1.0 | 0.24 | 0.04 | 0.04 | 86 | 1003.1 |
| 20260509222516 | 50 | 224 | 2.0 | 2.0 | 0.05 | 0.01 | 0.01 | 84 | 1003.3 |
| 20260509222012 | 50 | 238 | 2.0 | 1.0 | 0.00 | 0.00 | 0.00 | 83 | 1002.6 |
| 20260509221508 | 50 | 144 | 0.0 | 1.0 | 0.00 | 0.00 | 0.00 | 82 | 1002.4 |
| 20260509221004 | 50 | 138 | 1.0 | 1.0 | 0.00 | 0.00 | 0.00 | 82 | 1002.4 |
| 20260509220501 | 50 | 115 | 3.0 | 3.0 | 0.00 | 0.00 | 0.00 | 81 | 1002.7 |
| 20260509215956 | 50 | 136 | 4.0 | 4.0 | 0.00 | 0.00 | 0.00 | 80 | 1002.8 |
| 20260509215452 | 50 | 134 | 1.0 | 2.0 | 0.00 | 0.00 | 0.00 | 80 | 1002.9 |
| 20260509214950 | 50 | 147 | 4.0 | 4.0 | 0.00 | 0.00 | 0.00 | 79 | 1003.0 |
| 20260509214447 | 50 | 121 | 4.0 | 6.0 | 0.00 | 0.00 | 0.00 | 79 | 1003.0 |
| 20260509213943 | 51 | 133 | 6.0 | 7.0 | 0.00 | 0.00 | 0.00 | 78 | 1003.0 |
| 20260509213439 | 51 | 126 | 3.0 | 3.0 | 0.00 | 0.00 | 0.00 | 78 | 1003.1 |
| 20260509212937 | 51 | 138 | 2.0 | 3.0 | 0.00 | 0.00 | 0.00 | 78 | 1002.8 |
| 20260509212434 | 51 | 147 | 5.0 | 6.0 | 0.00 | 0.00 | 0.00 | 77 | 1002.8 |
| 20260509211930 | 51 | 150 | 8.0 | 10.0 | 0.00 | 0.00 | 0.00 | 77 | 1002.9 |
| 20260509211426 | 51 | 133 | 4.0 | 4.0 | 0.00 | 0.00 | 0.00 | 77 | 1002.8 |
| 20260509210923 | 51 | 149 | 5.0 | 7.0 | 0.00 | 0.00 | 0.00 | 78 | 1002.8 |
| 20260509210420 | 50 | 154 | 4.0 | 4.0 | 0.00 | 0.00 | 0.00 | 78 | 1002.7 |
| 20260509205915 | 50 | 143 | 4.0 | 6.0 | 0.00 | 0.00 | 0.00 | 79 | 1002.7 |
| 20260509205415 | 50 | 146 | 6.0 | 8.0 | 0.00 | 0.00 | 0.00 | 78 | 1003.3 |
| 20260509204911 | 50 | 135 | 5.0 | 6.0 | 0.00 | 0.00 | 0.00 | 79 | 1003.4 |
| 20260509204408 | 50 | 155 | 3.0 | 6.0 | 0.00 | 0.00 | 0.00 | 78 | 1003.5 |
| 20260509203904 | 50 | 151 | 3.0 | 3.0 | 0.00 | 0.00 | 0.00 | 79 | 1003.4 |
| 20260509203400 | 50 | 133 | 6.0 | 8.0 | 0.00 | 0.00 | 0.00 | 79 | 1003.3 |
| 20260509202858 | 50 | 126 | 6.0 | 8.0 | 0.00 | 0.00 | 0.00 | 79 | 1003.4 |
| 20260509202353 | 50 | 120 | 6.0 | 8.0 | 0.00 | 0.00 | 0.00 | 80 | 1003.3 |
| 20260509201849 | 50 | 130 | 8.0 | 8.0 | 0.00 | 0.00 | 0.00 | 78 | 1003.3 |
| 20260509201344 | 51 | 118 | 5.0 | 7.0 | 0.00 | 0.00 | 0.00 | 77 | 1003.4 |
| 20260509200842 | 51 | 113 | 2.0 | 2.0 | 0.00 | 0.00 | 0.00 | 78 | 1003.5 |
| 20260509200336 | 50 | 142 | 5.0 | 7.0 | 0.00 | 0.00 | 0.00 | 79 | 1003.6 |
| 20260509195834 | 50 | 87 | 1.0 | 1.0 | 0.00 | 0.00 | 0.00 | 79 | 1003.6 |
| 20260509195334 | 51 | 122 | 6.0 | 7.0 | 0.00 | 0.00 | 0.00 | 76 | 1003.8 |
| 20260509194834 | 51 | 128 | 2.0 | 2.0 | 0.00 | 0.00 | 0.00 | 76 | 1003.9 |
| 20260509194330 | 51 | 107 | 2.0 | 2.0 | 0.00 | 0.00 | 0.00 | 76 | 1004.0 |
| 20260509193827 | 52 | 143 | 2.0 | 2.0 | 0.00 | 0.00 | 0.00 | 76 | 1004.0 |
| 20260509193327 | 52 | 150 | 4.0 | 4.0 | 0.00 | 0.00 | 0.00 | 76 | 1004.0 |
| 20260509192823 | 52 | 117 | 2.0 | 2.0 | 0.00 | 0.00 | 0.00 | 76 | 1003.8 |
| 20260509192319 | 52 | 136 | 6.0 | 8.0 | 0.00 | 0.00 | 0.00 | 76 | 1004.0 |
| 20260509191814 | 53 | 131 | 7.0 | 8.0 | 0.00 | 0.00 | 0.00 | 74 | 1003.7 |
| 20260509191311 | 54 | 146 | 4.0 | 6.0 | 0.00 | 0.00 | 0.00 | 74 | 1003.9 |
| 20260509190806 | 55 | 103 | 6.0 | 9.0 | 0.00 | 0.00 | 0.00 | 71 | 1004.1 |
| 20260509190304 | 57 | 164 | 3.0 | 4.0 | 0.00 | 0.00 | 0.00 | 70 | 1004.2 |
| 20260509185801 | 57 | 140 | 6.0 | 7.0 | 0.00 | 0.00 | 0.00 | 71 | 1004.1 |
| 20260509185257 | 57 | 162 | 7.0 | 9.0 | 0.00 | 0.00 | 0.00 | 71 | 1004.1 |
| 20260509184755 | 56 | 146 | 7.0 | 10.0 | 0.00 | 0.00 | 0.00 | 70 | 1003.8 |
| 20260509184252 | 56 | 111 | 4.0 | 4.0 | 0.00 | 0.00 | 0.00 | 70 | 1004.0 |
| 20260509183748 | 56 | 102 | 6.0 | 8.0 | 0.00 | 0.00 | 0.00 | 70 | 1004.2 |
| 20260509183244 | 55 | 132 | 7.0 | 8.0 | 0.00 | 0.00 | 0.00 | 73 | 1004.2 |
| 20260509182739 | 55 | 159 | 3.0 | 6.0 | 0.00 | 0.00 | 0.00 | 74 | 1004.4 |
| 20260509182237 | 55 | 108 | 8.0 | 9.0 | 0.00 | 0.00 | 0.00 | 72 | 1004.5 |
| 20260509181734 | 54 | 145 | 6.0 | 8.0 | 0.00 | 0.00 | 0.00 | 74 | 1004.4 |
| 20260509181232 | 55 | 138 | 8.0 | 8.0 | 0.00 | 0.00 | 0.00 | 71 | 1004.5 |
| 20260509180729 | 54 | 127 | 7.0 | 9.0 | 0.00 | 0.00 | 0.00 | 72 | 1004.8 |
| 20260509180225 | 54 | 133 | 5.0 | 7.0 | 0.00 | 0.00 | 0.00 | 72 | 1004.8 |
| 20260509175721 | 54 | 110 | 4.0 | 4.0 | 0.00 | 0.00 | 0.00 | 71 | 1004.8 |
| 20260509175218 | 53 | 122 | 2.0 | 4.0 | 0.00 | 0.00 | 0.00 | 74 | 1004.8 |
| 20260509174714 | 53 | 147 | 8.0 | 9.0 | 0.00 | 0.00 | 0.00 | 73 | 1004.9 |
| 20260509174209 | 53 | 119 | 8.0 | 9.0 | 0.00 | 0.00 | 0.00 | 73 | 1005.0 |
| 20260509173706 | 54 | 128 | 6.0 | 8.0 | 0.00 | 0.00 | 0.00 | 72 | 1005.0 |
| 20260509173201 | 53 | 146 | 6.0 | 7.0 | 0.00 | 0.00 | 0.00 | 72 | 1005.1 |
| 20260509172657 | 53 | 124 | 6.0 | 7.0 | 0.00 | 0.00 | 0.00 | 73 | 1005.1 |
| 20260509172154 | 53 | 136 | 6.0 | 7.0 | 0.00 | 0.00 | 0.00 | 73 | 1005.3 |
| 20260509171649 | 53 | 136 | 8.0 | 8.0 | 0.00 | 0.00 | 0.00 | 71 | 1005.2 |
| 20260509171146 | 54 | 149 | 9.0 | 10.0 | 0.00 | 0.00 | 0.00 | 71 | 1005.1 |
| 20260509170643 | 55 | 149 | 8.0 | 9.0 | 0.00 | 0.00 | 0.00 | 70 | 1005.1 |
| 20260509170139 | 55 | 144 | 7.0 | 9.0 | 0.00 | 0.00 | 0.00 | 71 | 1005.4 |
| 20260509165637 | 54 | 140 | 8.0 | 9.0 | 0.00 | 0.00 | 0.00 | 71 | 1005.5 |
| 20260509165133 | 53 | 100 | 4.0 | 4.0 | 0.00 | 0.00 | 0.00 | 72 | 1005.5 |
| 20260509164629 | 53 | 143 | 7.0 | 8.0 | 0.00 | 0.00 | 0.00 | 71 | 1005.6 |
| 20260509164125 | 53 | 141 | 6.0 | 7.0 | 0.00 | 0.00 | 0.00 | 72 | 1005.6 |
| 20260509163623 | 53 | 124 | 9.0 | 10.0 | 0.00 | 0.00 | 0.00 | 70 | 1005.7 |
| 20260509163118 | 53 | 113 | 3.0 | 6.0 | 0.00 | 0.00 | 0.00 | 70 | 1005.8 |
| 20260509162616 | 53 | 130 | 7.0 | 9.0 | 0.00 | 0.00 | 0.00 | 69 | 1005.9 |
| 20260509162112 | 55 | 147 | 7.0 | 9.0 | 0.00 | 0.00 | 0.00 | 69 | 1005.7 |
| 20260509161608 | 54 | 132 | 9.0 | 9.0 | 0.00 | 0.00 | 0.00 | 67 | 1005.6 |
| 20260509161108 | 54 | 139 | 6.0 | 7.0 | 0.00 | 0.00 | 0.00 | 70 | 1005.7 |
| 20260509160605 | 55 | 117 | 6.0 | 7.0 | 0.00 | 0.00 | 0.00 | 66 | 1006.2 |
| 20260509160100 | 55 | 154 | 2.0 | 3.0 | 0.00 | 0.00 | 0.00 | 67 | 1005.9 |
| 20260509155556 | 53 | 103 | 2.0 | 2.0 | 0.00 | 0.00 | 0.00 | 69 | 1006.1 |
| 20260509155053 | 54 | 167 | 6.0 | 7.0 | 0.00 | 0.00 | 0.00 | 66 | 1006.1 |
| 20260509154549 | 53 | 151 | 5.0 | 6.0 | 0.00 | 0.00 | 0.00 | 68 | 1005.8 |
| 20260509154046 | 52 | 137 | 7.0 | 8.0 | 0.00 | 0.00 | 0.00 | 70 | 1005.9 |
| 20260509153543 | 52 | 135 | 10.0 | 11.0 | 0.00 | 0.00 | 0.00 | 69 | 1006.0 |
| 20260509153040 | 53 | 115 | 4.0 | 6.0 | 0.00 | 0.00 | 0.00 | 68 | 1006.1 |
| 20260509152536 | 53 | 154 | 7.0 | 8.0 | 0.00 | 0.00 | 0.00 | 68 | 1006.1 |
| 20260509152033 | 53 | 129 | 7.0 | 7.0 | 0.00 | 0.00 | 0.00 | 67 | 1006.0 |
| 20260509151529 | 53 | 118 | 6.0 | 6.0 | 0.00 | 0.00 | 0.00 | 68 | 1006.2 |
| 20260509151027 | 53 | 125 | 6.0 | 7.0 | 0.00 | 0.00 | 0.00 | 68 | 1006.5 |
| 20260509150524 | 52 | 134 | 3.0 | 3.0 | 0.00 | 0.00 | 0.00 | 70 | 1006.6 |
| 20260509150023 | 52 | 143 | 7.0 | 8.0 | 0.00 | 0.00 | 0.00 | 69 | 1006.8 |
| 20260509145518 | 51 | 109 | 1.0 | 2.0 | 0.00 | 0.00 | 0.00 | 69 | 1006.8 |
| 20260509145013 | 51 | 124 | 3.0 | 4.0 | 0.00 | 0.00 | 0.00 | 69 | 1006.7 |
| 20260509144511 | 50 | 115 | 3.0 | 3.0 | 0.00 | 0.00 | 0.00 | 70 | 1006.8 |
| 20260509144008 | 49 | 158 | 3.0 | 3.0 | 0.00 | 0.00 | 0.00 | 71 | 1007.0 |
| 20260509143505 | 49 | 149 | 7.0 | 7.0 | 0.00 | 0.00 | 0.00 | 70 | 1007.0 |
| 20260509143003 | 49 | 137 | 4.0 | 4.0 | 0.00 | 0.00 | 0.00 | 69 | 1006.8 |
| 20260509142458 | 48 | 157 | 5.0 | 4.0 | 0.00 | 0.00 | 0.00 | 70 | 1006.9 |
| 20260509141953 | 49 | 120 | 9.0 | 10.0 | 0.00 | 0.00 | 0.00 | 69 | 1007.0 |
| 20260509141450 | 50 | 118 | 6.0 | 7.0 | 0.00 | 0.00 | 0.00 | 67 | 1006.9 |
| 20260509140947 | 49 | 133 | 3.0 | 3.0 | 0.00 | 0.00 | 0.00 | 69 | 1007.0 |
| 20260509140443 | 49 | 145 | 7.0 | 8.0 | 0.00 | 0.00 | 0.00 | 68 | 1007.0 |
| 20260509135942 | 50 | 128 | 6.0 | 7.0 | 0.00 | 0.00 | 0.00 | 67 | 1007.1 |
| 20260509135439 | 50 | 133 | 5.0 | 6.0 | 0.00 | 0.00 | 0.00 | 66 | 1006.9 |
| 20260509134936 | 50 | 153 | 4.0 | 6.0 | 0.00 | 0.00 | 0.00 | 66 | 1007.0 |
| 20260509134434 | 51 | 150 | 6.0 | 7.0 | 0.00 | 0.00 | 0.00 | 64 | 1007.2 |
| 20260509133931 | 51 | 138 | 5.0 | 6.0 | 0.00 | 0.00 | 0.00 | 64 | 1007.2 |
| 20260509133427 | 51 | 116 | 2.0 | 3.0 | 0.00 | 0.00 | 0.00 | 65 | 1007.1 |
| 20260509132926 | 51 | 136 | 4.0 | 3.0 | 0.00 | 0.00 | 0.00 | 65 | 1007.1 |
| 20260509132423 | 51 | 157 | 1.0 | 1.0 | 0.00 | 0.00 | 0.00 | 64 | 1007.1 |
| 20260509131920 | 51 | 152 | 2.0 | 2.0 | 0.00 | 0.00 | 0.00 | 64 | 1007.2 |
| 20260509131417 | 50 | 177 | 2.0 | 2.0 | 0.00 | 0.00 | 0.00 | 65 | 1007.3 |
| 20260509130914 | 50 | 123 | 5.0 | 6.0 | 0.00 | 0.00 | 0.00 | 65 | 1007.0 |
| 20260509130409 | 50 | 137 | 4.0 | 4.0 | 0.00 | 0.00 | 0.00 | 64 | 1007.1 |
| 20260509125906 | 49 | 120 | 0.0 | 0.0 | 0.00 | 0.00 | 0.00 | 65 | 1007.2 |
| 20260509125403 | 48 | 138 | 5.0 | 6.0 | 0.00 | 0.00 | 0.00 | 64 | 1007.1 |
| 20260509124859 | 48 | 120 | 3.0 | 4.0 | 0.00 | 0.00 | 0.00 | 65 | 1007.2 |
| 20260509124356 | 49 | 126 | 4.0 | 4.0 | 0.00 | 0.00 | 0.00 | 65 | 1007.2 |
| 20260509123854 | 48 | 118 | 4.0 | 4.0 | 0.00 | 0.00 | 0.00 | 65 | 1006.9 |
| 20260509123351 | 48 | 61 | 1.0 | 1.0 | 0.00 | 0.00 | 0.00 | 66 | 1007.1 |
| 20260509122847 | 47 | 83 | 1.0 | 1.0 | 0.00 | 0.00 | 0.00 | 66 | 1007.1 |
| 20260509122344 | 48 | 152 | 5.0 | 6.0 | 0.00 | 0.00 | 0.00 | 64 | 1007.3 |
| 20260509121840 | 48 | 126 | 4.0 | 4.0 | 0.00 | 0.00 | 0.00 | 63 | 1007.3 |
| 20260509121338 | 48 | 135 | 2.0 | 2.0 | 0.00 | 0.00 | 0.00 | 65 | 1007.4 |
| 20260509120836 | 48 | 51 | 0.0 | 0.0 | 0.00 | 0.00 | 0.00 | 65 | 1007.5 |
| 20260509120333 | 47 | 50 | 0.0 | 0.0 | 0.00 | 0.00 | 0.00 | 66 | 1007.4 |
| 20260509115831 | 46 | 50 | 0.0 | 0.0 | 0.00 | 0.00 | 0.00 | 68 | 1007.2 |
| 20260509115328 | 45 | 50 | 0.0 | 0.0 | 0.00 | 0.00 | 0.00 | 68 | 1007.2 |
| 20260509114826 | 44 | 51 | 1.0 | 1.0 | 0.00 | 0.00 | 0.00 | 70 | 1007.2 |
| 20260509114324 | 42 | 38 | 2.0 | 2.0 | 0.00 | 0.00 | 0.00 | 71 | 1007.1 |
| 20260509113823 | 42 | 52 | 1.0 | 2.0 | 0.00 | 0.00 | 0.00 | 72 | 1007.2 |
| 20260509113320 | 41 | 23 | 1.0 | 1.0 | 0.00 | 0.00 | 0.00 | 73 | 1007.4 |
| 20260509112817 | 41 | 34 | 1.0 | 1.0 | 0.00 | 0.00 | 0.00 | 73 | 1007.5 |
| 20260509112314 | 40 | 28 | 1.0 | 1.0 | 0.00 | 0.00 | 0.00 | 74 | 1007.3 |
| 20260509111811 | 39 | 20 | 2.0 | 2.0 | 0.00 | 0.00 | 0.00 | 74 | 1007.5 |
| 20260509111308 | 39 | 21 | 2.0 | 2.0 | 0.00 | 0.00 | 0.00 | 74 | 1007.5 |
| 20260509110805 | 39 | 34 | 1.0 | 1.0 | 0.00 | 0.00 | 0.00 | 74 | 1007.6 |
| 20260509110301 | 39 | 36 | 1.0 | 2.0 | 0.00 | 0.00 | 0.00 | 74 | 1007.7 |
| 20260509105800 | 39 | 12 | 2.0 | 2.0 | 0.00 | 0.00 | 0.00 | 75 | 1007.6 |
| 20260509105257 | 39 | 22 | 0.0 | 0.0 | 0.00 | 0.00 | 0.00 | 75 | 1007.8 |